Regional Weather Roundup
Issued by NWS Northern Indiana

Home | Current Version | Previous Version | Graphics & Text | Print | Product List | Glossary On
Versions: 1 2 3 4 5 6 7 8 9 10 11 12 13 14 15 16 17 18 19 20 21 22 23 24 25 26 27 28 29 30 31 32 33 34 35 36 37 38 39 40 41 42 43 44 45 46 47 48 49 50
000
ASUS43 KIWX 172010
RWRIWX

KIWX WEATHER ROUNDUP
NATIONAL WEATHER SERVICE NORTHERN INDIANA
400 PM EDT WED SEP 17 2014

NOTE: "FAIR" INDICATES FEW OR NO CLOUDS BELOW 12,000 FEET WITH NO
SIGNIFICANT WEATHER AND/OR OBSTRUCTIONS TO VISIBILITY.

* THESE STATIONS ARE NOT UNDER NWS QUALITY CONTROL. THEY ALSO MAY NOT
  REPORT WEATHER SUCH AS PRECIPITATION OR FOG.

INZ001>027-172100-
NORTHERN INDIANA

CITY           SKY/WX    TMP DP  RH WIND       PRES   REMARKS
GARY*          MOSUNNY   70  46  43 NE9       29.99F
VALPARAISO     MOSUNNY   68  46  45 W5        30.00F
MICHIGAN CITY* SUNNY     64  45  48 N6        30.01F
LAPORTE*       PTSUNNY   65  46  48 NW6       30.00F
KNOX*          PTSUNNY   68  46  45 W3        29.99F
SOUTH BEND     MOSUNNY   68  44  42 VRB5      30.00F
ELKHART*       PTSUNNY   68  43  40 W6        30.00F
GOSHEN         MOSUNNY   69  47  45 W12       30.00F
MONTICELLO*    PTSUNNY   69  49  49 SW6       29.99F
LOGANSPORT*    MOSUNNY   68  45  42 CALM      30.01F
ROCHESTER*     MOSUNNY   72  45  37 SW7       30.00F
WARSAW*        PTSUNNY   66  46  48 W6        30.00F
ANGOLA*        MOSUNNY   66  57  72 W5        30.00F
FORT WAYNE     MOSUNNY   67  47  48 SW7       30.01F
HUNTINGTON*    MOSUNNY   65  49  56 SW3       30.00F
PERU/GRISSOM   MOSUNNY   69  52  53 SW8       29.99F
MARION*        PTSUNNY   69  44  40 CALM      30.01S

$$
INZ028>050-172100-
CENTRAL INDIANA

CITY           SKY/WX    TMP DP  RH WIND       PRES   REMARKS
LAFAYETTE      MOSUNNY   68  49  50 W7        30.00F
KOKOMO*        MOSUNNY   68  46  45 CALM      30.00F
MUNCIE*        SUNNY     66  46  48 VRB5      30.01F
INDIANAPOLIS   PTSUNNY   65  48  54 W3        30.02F

$$
MIZ043>046-050>051-056>058-064>065-071>073-077>080-172100-
SOUTHWEST LOWER MICHIGAN

CITY           SKY/WX    TMP DP  RH WIND       PRES   REMARKS
BATTLE CREEK   PTSUNNY   66  44  45 NW6       30.00F
BENTON HARBOR  SUNNY     64  45  49 W10       30.01F
COLDWATER*     MOSUNNY   66  45  46 W7        30.00S
HILLSDALE*     PTSUNNY   67  42  40 W8        30.00F
HOLLAND        PTSUNNY   65  47  52 W6        30.02S
GRAND RAPIDS   PTSUNNY   67  50  54 W14       30.00S
KALAMAZOO      MOSUNNY   67  43  41 W8        30.00F
STURGIS*       MOSUNNY   64  46  52 CALM      29.99F
THREE RIVERS*  FAIR      68  46  46 SW7       30.00F

$$
OHZ001>008-015>018-024>025-172100-
NORTHWEST OHIO

CITY           SKY/WX    TMP DP  RH WIND       PRES   REMARKS
WAUSEON*       PTSUNNY   68  46  45 W10G16    30.00S
DEFIANCE       MOSUNNY   67  44  43 VRB5      30.00F
FINDLAY        SUNNY     67  45  45 W7        29.99F
TOLEDO EXPRESS PTSUNNY   68  44  42 SW12      29.99F
TOLEDO METCALF SUNNY     68  45  43 W10       30.00F
LIMA           MOSUNNY   67  47  48 CALM      30.00F

$$
&&



USA.gov is the U.S. government's official web portal to all federal, state and local government web resources and services.